Location: Unspecified
(0.0000°N, 0.0000°E)
Time: 04:52:12
(UTC+00:00)

Tiros 1 - Pass Details

Date: 03 October 2020
Orbit: 630 x 663 km, 48.4° (Epoch: 28 October)

Event Time Altitude Azimuth Distance (km) Brightness Sun altitude
Rises 22:20:34 0° 299° (WNW) 2,981 - -67.5°
Reaches altitude 10° 22:23:15 10° 286° (WNW) 2,070 - -68.2°
Maximum altitude 22:27:09 25° 231° (SW) 1,325 - -69.1°
Drops below altitude 10° 22:31:04 10° 176° (S) 2,066 - -70.1°
Sets 22:33:46 0° 162° (SSE) 2,974 - -70.8°
